AUA534 LIRQ-LOWW

Flight info

Callsign AUA534
Flight time 1h 4m
Altitude 34000
Route GAVRA DCT LAPNA LAPNA2W
Aircraft E195/M-SDE3GILORVW/S

Departure

Time 2026-04-30 09:06
Airport Florence Airport, Peretola (LIRQ)

Arrival

Time 2026-04-30 10:11
Airport Vienna International Airport (LOWW)
Time Latitude Longitude Altitude Speed Heading
2026-04-30 08:19 43.80750 11.19735 130 ft 0 kts 195°
2026-04-30 09:00 43.80749 11.19734 130 ft 1 kts 205°
2026-04-30 09:00 43.80752 11.19716 128 ft 4 kts 298°
2026-04-30 09:01 43.80758 11.19656 129 ft 10 kts 236°
2026-04-30 09:01 43.80697 11.19596 128 ft 4 kts 154°
2026-04-30 09:01 43.80670 11.19638 128 ft 11 kts 134°
2026-04-30 09:01 43.80589 11.19737 128 ft 19 kts 138°
2026-04-30 09:02 43.80631 11.19934 133 ft 13 kts 49°
2026-04-30 09:02 43.80714 11.20062 135 ft 21 kts 47°
2026-04-30 09:02 43.80809 11.20209 136 ft 20 kts 48°
2026-04-30 09:03 43.80905 11.20356 136 ft 20 kts 48°
2026-04-30 09:03 43.80998 11.20501 135 ft 20 kts 49°
2026-04-30 09:03 43.81088 11.20640 138 ft 18 kts 47°
2026-04-30 09:03 43.81178 11.20778 140 ft 22 kts 49°
2026-04-30 09:04 43.81276 11.20932 145 ft 20 kts 48°
2026-04-30 09:04 43.81370 11.21075 146 ft 19 kts 45°
2026-04-30 09:04 43.81456 11.21209 147 ft 18 kts 51°
2026-04-30 09:04 43.81512 11.21333 147 ft 6 kts 19°
2026-04-30 09:05 43.81516 11.21313 146 ft 2 kts 246°
2026-04-30 09:05 43.81489 11.21259 146 ft 10 kts 228°
2026-04-30 09:05 43.81486 11.21254 146 ft 0 kts 228°
2026-04-30 09:05 43.81485 11.21252 146 ft 7 kts 228°
2026-04-30 09:06 43.81291 11.20952 146 ft 76 kts 228°
2026-04-30 09:06 43.80791 11.20180 137 ft 134 kts 229°
2026-04-30 09:06 43.80161 11.19181 500 ft 138 kts 229°
2026-04-30 09:06 43.79526 11.18121 886 ft 146 kts 228°
2026-04-30 09:07 43.78904 11.17051 964 ft 155 kts 230°
2026-04-30 09:07 43.78858 11.15535 813 ft 177 kts 326°
2026-04-30 09:07 43.79842 11.14924 1523 ft 162 kts 334°
2026-04-30 09:07 43.80527 11.13615 2086 ft 179 kts 289°
2026-04-30 09:08 43.80744 11.11825 2478 ft 202 kts 282°
2026-04-30 09:08 43.80911 11.09807 2955 ft 221 kts 281°
2026-04-30 09:08 43.81070 11.07640 3572 ft 230 kts 284°
2026-04-30 09:08 43.81622 11.05528 4058 ft 237 kts 308°
2026-04-30 09:09 43.82821 11.03989 4636 ft 236 kts 339°
2026-04-30 09:09 43.84374 11.03413 5424 ft 229 kts
2026-04-30 09:09 43.85931 11.03670 6215 ft 225 kts 20°
2026-04-30 09:09 43.87299 11.04674 6965 ft 223 kts 40°
2026-04-30 09:10 43.88295 11.06332 7593 ft 228 kts 60°
2026-04-30 09:10 43.88726 11.08461 8245 ft 235 kts 83°
2026-04-30 09:10 43.88494 11.10732 8847 ft 247 kts 108°
2026-04-30 09:10 43.87562 11.12809 9288 ft 265 kts 125°
2026-04-30 09:11 43.86160 11.14617 9532 ft 286 kts 140°
2026-04-30 09:11 43.84514 11.16306 9911 ft 300 kts 141°
2026-04-30 09:11 43.82822 11.18068 10376 ft 311 kts 140°
2026-04-30 09:11 43.81074 11.19921 10605 ft 328 kts 140°
2026-04-30 09:12 43.79519 11.22241 11099 ft 330 kts 117°
2026-04-30 09:12 43.78878 11.25275 11702 ft 325 kts 88°
2026-04-30 09:12 43.78973 11.28348 12354 ft 325 kts 83°
2026-04-30 09:12 43.79102 11.31496 12975 ft 330 kts 84°
2026-04-30 09:13 43.79216 11.34702 13566 ft 336 kts 83°
2026-04-30 09:13 43.79339 11.37951 14155 ft 339 kts 83°
2026-04-30 09:13 43.79478 11.41228 14713 ft 343 kts 82°
2026-04-30 09:13 43.79639 11.44541 15285 ft 346 kts 82°
2026-04-30 09:14 43.79649 11.47908 15843 ft 353 kts 89°
2026-04-30 09:14 43.79459 11.51332 16396 ft 358 kts 92°
2026-04-30 09:14 43.79222 11.54788 16930 ft 363 kts 92°
2026-04-30 09:14 43.78998 11.58289 17466 ft 368 kts 91°
2026-04-30 09:15 43.78791 11.61840 18022 ft 372 kts 91°
2026-04-30 09:15 43.78589 11.65431 18560 ft 377 kts 91°
2026-04-30 09:15 43.78377 11.69055 19065 ft 381 kts 91°
2026-04-30 09:15 43.78167 11.72726 19596 ft 384 kts 91°
2026-04-30 09:16 43.77952 11.76423 20179 ft 387 kts 91°
2026-04-30 09:16 43.77870 11.80152 20691 ft 386 kts 80°
2026-04-30 09:16 43.78645 11.83638 21186 ft 377 kts 55°
2026-04-30 09:16 43.80308 11.86347 21689 ft 368 kts 37°
2026-04-30 09:17 43.82243 11.88689 22163 ft 370 kts 36°
2026-04-30 09:17 43.84175 11.91073 22608 ft 374 kts 37°
2026-04-30 09:17 43.86111 11.93523 23076 ft 378 kts 38°
2026-04-30 09:17 43.88045 11.96006 23526 ft 381 kts 38°
2026-04-30 09:18 43.89999 11.98510 23957 ft 384 kts 37°
2026-04-30 09:18 43.91972 12.01037 24343 ft 388 kts 37°
2026-04-30 09:18 43.93960 12.03588 24744 ft 391 kts 37°
2026-04-30 09:18 43.95968 12.06166 25162 ft 394 kts 37°
2026-04-30 09:19 43.97987 12.08761 25569 ft 397 kts 37°
2026-04-30 09:19 44.00021 12.11376 25968 ft 400 kts 37°
2026-04-30 09:19 44.02042 12.13975 26350 ft 403 kts 36°
2026-04-30 09:19 44.04108 12.16627 26711 ft 405 kts 36°
2026-04-30 09:20 44.06213 12.19326 27064 ft 408 kts 36°
2026-04-30 09:20 44.08304 12.22007 27415 ft 410 kts 36°
2026-04-30 09:20 44.10381 12.24675 27764 ft 413 kts 36°
2026-04-30 09:20 44.12495 12.27388 28091 ft 415 kts 36°
2026-04-30 09:21 44.14628 12.30126 28420 ft 418 kts 36°
2026-04-30 09:21 44.16769 12.32875 28730 ft 420 kts 36°
2026-04-30 09:21 44.18924 12.35645 29051 ft 422 kts 36°
2026-04-30 09:21 44.21082 12.38422 29452 ft 423 kts 36°
2026-04-30 09:22 44.23239 12.41212 29919 ft 422 kts 36°
2026-04-30 09:22 44.25389 12.44003 30373 ft 422 kts 36°
2026-04-30 09:22 44.27537 12.46789 30754 ft 421 kts 36°
2026-04-30 09:22 44.29677 12.49564 31121 ft 420 kts 36°
2026-04-30 09:23 44.31815 12.52336 31471 ft 419 kts 36°
2026-04-30 09:23 44.33945 12.55095 31808 ft 418 kts 36°
2026-04-30 09:23 44.36078 12.57856 32131 ft 417 kts 36°
2026-04-30 09:23 44.38206 12.60612 32441 ft 417 kts 36°
2026-04-30 09:24 44.40325 12.63355 32745 ft 416 kts 36°
2026-04-30 09:24 44.42450 12.66109 33042 ft 415 kts 36°
2026-04-30 09:24 44.44564 12.68851 33336 ft 414 kts 36°
2026-04-30 09:24 44.46678 12.71591 33609 ft 414 kts 36°
2026-04-30 09:25 44.48794 12.74335 33879 ft 413 kts 37°
2026-04-30 09:25 44.50904 12.77071 34135 ft 413 kts 37°
2026-04-30 09:25 44.52998 12.79794 34439 ft 411 kts 37°
2026-04-30 09:25 44.55119 12.82536 34423 ft 418 kts 36°
2026-04-30 09:26 44.59478 12.88126 34252 ft 429 kts 37°
2026-04-30 09:26 44.63837 12.93742 34300 ft 429 kts 37°
2026-04-30 09:27 44.68222 12.99420 34295 ft 428 kts 37°
2026-04-30 09:27 44.72603 13.05101 34299 ft 428 kts 37°
2026-04-30 09:28 44.76981 13.10787 34298 ft 428 kts 37°
2026-04-30 09:28 44.81347 13.16472 34293 ft 428 kts 37°
2026-04-30 09:29 44.85722 13.22180 34294 ft 428 kts 37°
2026-04-30 09:29 44.90083 13.27884 34290 ft 427 kts 38°
2026-04-30 09:30 44.94437 13.33589 34293 ft 426 kts 38°
2026-04-30 09:30 44.98776 13.39289 34285 ft 426 kts 38°
2026-04-30 09:31 45.03108 13.44990 34285 ft 425 kts 38°
2026-04-30 09:31 45.07427 13.50688 34281 ft 424 kts 38°
2026-04-30 09:32 45.11742 13.56390 34286 ft 424 kts 38°
2026-04-30 09:32 45.16039 13.62082 34288 ft 423 kts 38°
2026-04-30 09:33 45.20331 13.67781 34297 ft 422 kts 39°
2026-04-30 09:33 45.23891 13.72516 34297 ft 422 kts 39°
2026-04-30 09:34 45.28858 13.79136 34302 ft 421 kts 39°
2026-04-30 09:34 45.33122 13.84830 34308 ft 420 kts 39°
2026-04-30 09:35 45.36657 13.89559 34304 ft 419 kts 39°
2026-04-30 09:35 45.40904 13.95253 34304 ft 419 kts 39°
2026-04-30 09:36 45.45138 14.00934 34301 ft 418 kts 39°
2026-04-30 09:36 45.49371 14.06625 34306 ft 418 kts 39°
2026-04-30 09:37 45.53576 14.12328 34306 ft 417 kts 39°
2026-04-30 09:37 45.57783 14.18016 34316 ft 416 kts 39°
2026-04-30 09:38 45.61993 14.23714 34323 ft 416 kts 39°
2026-04-30 09:38 45.66174 14.29415 34327 ft 416 kts 40°
2026-04-30 09:39 45.70358 14.35111 34337 ft 415 kts 39°
2026-04-30 09:39 45.74552 14.40782 34335 ft 414 kts 39°
2026-04-30 09:40 45.78724 14.46467 34352 ft 414 kts 40°
2026-04-30 09:40 45.82876 14.52176 34351 ft 414 kts 40°
2026-04-30 09:41 45.87023 14.57884 34360 ft 413 kts 40°
2026-04-30 09:41 45.91164 14.63577 34374 ft 412 kts 40°
2026-04-30 09:42 45.95295 14.69276 34376 ft 411 kts 40°
2026-04-30 09:42 45.99414 14.74957 34368 ft 410 kts 40°
2026-04-30 09:43 46.03511 14.80638 34373 ft 409 kts 40°
2026-04-30 09:43 46.07605 14.86313 34380 ft 408 kts 40°
2026-04-30 09:44 46.11671 14.91982 34393 ft 407 kts 41°
2026-04-30 09:44 46.15724 14.97700 34388 ft 406 kts 41°
2026-04-30 09:45 46.19764 15.03304 34402 ft 406 kts 41°
2026-04-30 09:45 46.23825 15.08969 34400 ft 406 kts 40°
2026-04-30 09:46 46.27870 15.14641 34400 ft 405 kts 41°
2026-04-30 09:46 46.31914 15.20332 34398 ft 405 kts 41°
2026-04-30 09:47 46.35963 15.26003 34402 ft 405 kts 40°
2026-04-30 09:47 46.39997 15.31694 34416 ft 405 kts 41°
2026-04-30 09:48 46.44024 15.37383 34412 ft 404 kts 41°
2026-04-30 09:48 46.48039 15.43084 34424 ft 403 kts 41°
2026-04-30 09:49 46.52047 15.48780 34432 ft 403 kts 41°
2026-04-30 09:49 46.56540 15.53395 34467 ft 395 kts 22°
2026-04-30 09:50 46.59065 15.54998 34232 ft 395 kts 21°
2026-04-30 09:50 46.61561 15.56559 33984 ft 384 kts 21°
2026-04-30 09:50 46.63995 15.58070 33648 ft 378 kts 21°
2026-04-30 09:50 46.66426 15.59561 33075 ft 378 kts 21°
2026-04-30 09:51 46.68847 15.61034 32564 ft 377 kts 21°
2026-04-30 09:51 46.71268 15.62512 32069 ft 377 kts 21°
2026-04-30 09:51 46.73684 15.63995 31556 ft 377 kts 22°
2026-04-30 09:51 46.76102 15.65480 31060 ft 377 kts 22°
2026-04-30 09:52 46.78527 15.66972 30541 ft 379 kts 22°
2026-04-30 09:52 46.80948 15.68462 30035 ft 378 kts 22°
2026-04-30 09:52 46.83368 15.69959 29529 ft 379 kts 22°
2026-04-30 09:52 46.85803 15.71467 29035 ft 381 kts 22°
2026-04-30 09:53 46.88238 15.72977 28527 ft 380 kts 22°
2026-04-30 09:53 46.90661 15.74481 28014 ft 377 kts 22°
2026-04-30 09:53 46.93060 15.75975 27510 ft 373 kts 22°
2026-04-30 09:53 46.95436 15.77451 27019 ft 369 kts 22°
2026-04-30 09:54 46.97807 15.78939 26061 ft 376 kts 22°
2026-04-30 09:54 47.00188 15.80412 25625 ft 367 kts 22°
2026-04-30 09:54 47.02521 15.81862 25056 ft 362 kts 22°
2026-04-30 09:54 47.04795 15.83286 24573 ft 356 kts 22°
2026-04-30 09:55 47.07057 15.84703 24065 ft 351 kts 22°
2026-04-30 09:55 47.09288 15.86103 23564 ft 345 kts 22°
2026-04-30 09:55 47.11471 15.87478 23105 ft 340 kts 22°
2026-04-30 09:55 47.13640 15.88848 22634 ft 339 kts 22°
2026-04-30 09:56 47.15807 15.90216 22149 ft 341 kts 22°
2026-04-30 09:56 47.17984 15.91593 21681 ft 340 kts 22°
2026-04-30 09:56 47.20151 15.92980 21172 ft 340 kts 24°
2026-04-30 09:56 47.22290 15.94451 20702 ft 337 kts 24°
2026-04-30 09:57 47.24409 15.95864 20237 ft 334 kts 23°
2026-04-30 09:57 47.26535 15.97212 19771 ft 331 kts 22°
2026-04-30 09:57 47.28655 15.98525 19303 ft 329 kts 22°
2026-04-30 09:57 47.30754 15.99817 18851 ft 326 kts 22°
2026-04-30 09:58 47.32838 16.01094 18378 ft 323 kts 22°
2026-04-30 09:58 47.34907 16.02369 17957 ft 320 kts 22°
2026-04-30 09:58 47.36953 16.03649 17484 ft 319 kts 25°
2026-04-30 09:58 47.38833 16.05388 17051 ft 318 kts 36°
2026-04-30 09:59 47.42248 16.09489 16226 ft 314 kts 37°
2026-04-30 09:59 47.45709 16.13397 15385 ft 311 kts 35°
2026-04-30 10:00 47.49152 16.17216 14064 ft 317 kts 35°
2026-04-30 10:00 47.50892 16.19149 13708 ft 308 kts 36°
2026-04-30 10:01 47.54256 16.22892 12909 ft 297 kts 36°
2026-04-30 10:01 47.55898 16.24705 12515 ft 293 kts 36°
2026-04-30 10:01 47.57513 16.26512 12122 ft 288 kts 36°
2026-04-30 10:02 47.60684 16.30030 11384 ft 282 kts 36°
2026-04-30 10:02 47.62243 16.31764 11000 ft 280 kts 36°
2026-04-30 10:02 47.63790 16.33486 10633 ft 276 kts 36°
2026-04-30 10:02 47.65313 16.35187 10283 ft 273 kts 36°
2026-04-30 10:03 47.66826 16.36872 9895 ft 269 kts 36°
2026-04-30 10:03 47.68305 16.38518 9577 ft 264 kts 36°
2026-04-30 10:03 47.69776 16.40147 9223 ft 263 kts 36°
2026-04-30 10:03 47.71210 16.41750 8891 ft 260 kts 36°
2026-04-30 10:04 47.72661 16.43353 8527 ft 260 kts 36°
2026-04-30 10:04 47.74103 16.44973 8188 ft 259 kts 37°
2026-04-30 10:04 47.75537 16.46592 7867 ft 258 kts 37°
2026-04-30 10:04 47.76969 16.48195 7491 ft 258 kts 37°
2026-04-30 10:05 47.78400 16.49793 7178 ft 255 kts 37°
2026-04-30 10:05 47.79814 16.51373 6836 ft 254 kts 37°
2026-04-30 10:05 47.81223 16.52962 6484 ft 252 kts 37°
2026-04-30 10:05 47.82609 16.54542 6172 ft 251 kts 37°
2026-04-30 10:06 47.84003 16.56116 5816 ft 251 kts 36°
2026-04-30 10:06 47.85392 16.57672 5518 ft 249 kts 36°
2026-04-30 10:06 47.86781 16.59221 5144 ft 248 kts 36°
2026-04-30 10:06 47.88153 16.60746 4849 ft 244 kts 36°
2026-04-30 10:07 47.89509 16.62273 4525 ft 245 kts 36°
2026-04-30 10:07 47.90868 16.63808 4223 ft 245 kts 36°
2026-04-30 10:07 47.92310 16.65134 3837 ft 243 kts 17°
2026-04-30 10:07 47.93959 16.65196 3625 ft 235 kts 351°
2026-04-30 10:08 47.95477 16.64761 3687 ft 222 kts 349°
2026-04-30 10:08 47.97008 16.64161 3193 ft 225 kts 345°
2026-04-30 10:08 47.98474 16.63513 2882 ft 215 kts 346°
2026-04-30 10:08 47.99888 16.62930 2553 ft 211 kts 346°
2026-04-30 10:09 48.01246 16.62372 2272 ft 195 kts 346°
2026-04-30 10:09 48.02512 16.61826 2012 ft 182 kts 345°
2026-04-30 10:09 48.03668 16.61326 1815 ft 165 kts 346°
2026-04-30 10:09 48.04721 16.60886 1524 ft 151 kts 346°
2026-04-30 10:10 48.05692 16.60485 1302 ft 139 kts 347°
2026-04-30 10:10 48.06572 16.60111 1107 ft 126 kts 347°
2026-04-30 10:10 48.07382 16.59754 935 ft 118 kts 345°
2026-04-30 10:10 48.08162 16.59417 771 ft 115 kts 345°
2026-04-30 10:11 48.08906 16.59107 640 ft 106 kts 345°
2026-04-30 10:11 48.09549 16.58840 614 ft 81 kts 345°
2026-04-30 10:11 48.09963 16.58640 615 ft 39 kts 326°
2026-04-30 10:11 48.10078 16.58444 614 ft 21 kts 300°
2026-04-30 10:12 48.10177 16.58302 621 ft 20 kts 340°
2026-04-30 10:12 48.10318 16.58241 618 ft 22 kts 343°
2026-04-30 10:12 48.10473 16.58176 616 ft 24 kts 344°
2026-04-30 10:12 48.10642 16.58104 618 ft 26 kts 343°
2026-04-30 10:13 48.10824 16.58029 613 ft 28 kts 343°
2026-04-30 10:13 48.11015 16.57946 619 ft 29 kts 345°
2026-04-30 10:13 48.11116 16.57842 612 ft 16 kts 295°
2026-04-30 10:13 48.11176 16.57659 622 ft 21 kts 296°
2026-04-30 10:14 48.11239 16.57464 612 ft 21 kts 295°
2026-04-30 10:14 48.11296 16.57331 619 ft 9 kts 349°
2026-04-30 10:14 48.11453 16.57303 609 ft 16 kts 295°
2026-04-30 10:15 48.11503 16.57152 609 ft 14 kts 297°
2026-04-30 10:15 48.11507 16.57126 609 ft 2 kts 266°
2026-04-30 10:15 48.11477 16.57094 616 ft 8 kts 206°
2026-04-30 10:15 48.11442 16.57069 612 ft 2 kts 206°
2026-04-30 10:16 48.11441 16.57068 612 ft 0 kts 206°